Dewpoint
54 46 46 59 57 57 57 55 36 38 45 41 40 38 35 30 35 28 26 25 25 44 45 46 46 47 46 51 54 58 56 54 56 43 44 54 58 63 68 69 70 71 72 73 73 74 74 75 75 75 75 75 75 75 75 74 74 74 74 74 73 73 73 73 73 73 73 73 73 72 72 72 73 73 72 72 72 72 72 72 73 73 73 73 73 74 74 74 74 74 74 73 73 73 73 72 72
49 46 45 53 55 55 52 51 41 40 40 38 39 35 34 34 34 32 30 25 32 43 46 47 47 48 51 55 55 56 52 59 60 58 62 65 67 68 68 68 69 70 71 73 73 73 74 74 75 75 75 75 75 75 74 74 74 74 74 74 74 73 73 73 73 73 73 73 73 72 72 72 72 72 72 72 72 72 72 73 73 73 73 73 73 74 74 74 73 74 74 73 74 74 73 73 72
53 46 36 51 54 54 52 45 41 38 36 34 34 37 36 35 35 34 30 27 44 45 46 47 49 50 52 53 52 52 52 58 58 59 65 65 65 67 67 67 69 70 71 73 73 73 73 74 75 75 75 75 75 74 74 74 74 74 74 73 74 73 73 73 73 73 73 73 73 72 72 72 72 72 72 72 72 72 72 73 73 73 73 73 73 73 73 73 73 73 73 74 74 73 73 73 73
55 47 35 43 43 49 48 41 40 34 33 32 31 29 28 29 28 27 24 22 45 48 48 45 45 47 49 49 52 54 54 58 60 55 63 62 64 67 67 67 69 70 72 72 73 73 73 74 75 75 75 74 75 74 74 74 74 74 74 74 73 73 73 73 73 73 73 73 73 72 72 72 72 72 72 72 72 72 72 73 73 73 73 73 73 73 73 73 73 73 74 73 73 73 73 73 73
45 52 41 39 37 41 40 39 37 35 32 30 29 29 28 24 23 23 22 22 35 45 47 46 46 48 50 51 51 51 53 55 57 50 53 67 68 67 67 68 68 70 71 72 72 73 73 74 74 74 74 74 74 74 74 74 74 74 74 74 73 73 73 73 73 73 73 73 72 72 72 72 72 72 72 72 71 72 72 73 73 73 73 73 72 72 73 73 73 73 73 73 73 73 74 73 73
34 41 47 36 35 39 30 28 30 33 33 30 29 27 27 26 25 23 23 23 23 41 46 46 46 49 52 49 52 50 53 49 52 52 62 67 67 67 67 68 68 69 70 71 72 73 73 75 74 74 74 74 74 74 74 74 74 74 73 73 73 73 73 73 73 72 73 73 73 73 72 72 72 71 71 71 71 72 72 72 72 72 72 72 72 72 72 73 73 73 73 73 73 74 73 73 73
30 30 34 34 30 33 28 27 26 29 30 31 30 28 27 27 25 25 23 22 40 46 47 46 49 49 49 52 51 54 56 57 58 56 67 67 68 68 67 67 67 68 70 71 72 73 73 74 74 74 74 74 74 74 74 74 73 73 73 73 73 73 73 73 72 72 73 73 73 72 72 72 72 71 72 71 71 71 72 72 72 72 72 72 72 72 72 73 73 74 73 73 73 73 73 73 73
43 28 32 27 26 32 26 25 26 26 26 30 30 30 29 27 25 23 22 21 29 45 46 48 47 46 51 52 49 53 57 60 63 66 68 68 68 67 67 66 67 68 69 71 72 73 74 74 74 74 74 74 74 74 74 74 73 73 73 73 73 72 72 72 72 72 72 73 72 72 72 72 72 71 72 71 71 71 71 71 71 72 72 72 72 72 72 73 73 74 73 73 72 72 73 73 73
31 28 35 25 27 30 26 22 21 23 24 24 24 27 40 29 25 22 19 20 23 44 46 47 48 46 48 54 54 57 57 65 68 70 69 68 67 66 66 66 67 68 69 71 72 73 73 74 74 74 74 74 74 73 74 74 74 73 73 73 73 73 72 72 72 73 73 73 73 72 72 72 72 71 72 71 71 71 71 71 71 72 72 72 71 71 72 72 73 73 73 73 72 72 72 72 72
30 27 26 25 25 22 22 23 23 22 21 21 21 21 21 21 20 20 18 17 20 43 44 45 43 45 49 50 55 56 55 66 67 67 68 67 67 67 66 67 67 68 69 71 72 73 73 74 74 74 74 74 74 74 74 73 73 73 73 73 73 73 73 72 73 73 73 73 73 72 72 71 71 71 72 71 71 71 70 70 70 71 72 72 71 71 72 72 73 73 73 72 72 72 72 72 72
26 27 28 27 23 21 21 21 22 23 24 23 21 21 21 20 20 19 18 18 18 17 38 44 44 48 50 51 52 55 60 66 66 66 67 67 67 66 67 67 68 68 69 71 72 72 73 73 74 74 74 74 74 73 73 73 74 73 73 73 73 73 73 73 73 73 73 73 73 72 72 71 71 71 71 70 70 70 70 71 71 72 72 71 71 71 71 71 72 73 72 72 72 72 72 72 72
25 24 26 21 21 20 19 20 21 22 23 23 22 22 22 21 20 19 18 17 17 18 23 43 42 49 52 53 52 57 60 65 65 66 67 67 66 66 66 67 68 69 70 71 72 72 72 73 73 74 74 74 74 74 73 73 73 73 73 73 73 73 73 73 73 73 73 73 73 72 71 71 71 71 71 71 72 71 71 71 71 72 71 71 70 70 71 71 71 72 72 72 72 72 72 72 72
21 23 21 22 21 20 20 19 19 24 20 20 21 22 21 20 19 19 19 18 17 16 18 42 46 47 48 52 55 56 57 63 65 66 67 66 65 65 67 69 69 69 71 71 71 72 72 72 72 73 73 74 74 74 73 73 73 73 73 73 73 73 73 73 73 73 73 73 73 72 71 71 71 71 71 71 71 71 71 71 71 71 71 71 70 70 70 71 72 72 72 72 71 71 71 71 71
20 20 21 18 20 19 18 18 19 19 19 21 21 21 20 20 19 19 18 17 17 17 18 38 47 52 52 55 56 53 55 58 64 65 66 65 66 68 70 70 69 70 71 71 71 71 72 72 72 72 72 72 73 73 73 73 73 73 73 73 73 73 73 73 73 73 73 73 73 72 71 71 71 71 71 71 71 71 71 71 70 71 71 70 70 70 69 71 71 72 72 72 71 71 71 72 71
21 22 21 19 16 18 18 17 17 16 17 20 22 21 20 23 20 20 18 17 17 18 32 48 52 50 52 53 55 53 55 57 62 66 66 69 70 70 70 70 69 69 70 71 71 71 71 71 71 72 72 72 72 72 72 72 73 73 73 73 73 73 73 73 73 73 73 73 73 72 71 71 70 71 71 70 71 71 71 71 70 70 70 70 70 69 69 69 71 72 72 72 71 71 72 71 71
18 18 19 18 14 15 16 17 18 16 16 17 18 18 17 19 19 18 18 19 18 23 48 52 51 48 52 52 54 54 56 60 64 66 69 69 70 70 70 69 69 69 70 70 71 71 71 71 71 72 72 71 71 71 71 72 72 73 73 73 73 73 73 73 73 73 73 72 73 72 72 70 70 69 70 69 70 71 71 70 70 70 70 70 70 69 69 69 70 71 71 72 71 71 72 71 71
19 18 15 16 13 14 15 15 17 16 17 17 17 17 16 16 17 18 19 18 17 17 21 45 47 51 49 53 55 56 58 64 66 68 68 68 69 69 70 69 69 69 69 70 70 70 71 71 71 71 71 71 71 71 71 71 71 72 72 72 72 72 72 72 72 72 72 72 72 72 72 70 69 69 69 68 69 70 70 70 70 69 70 70 69 69 69 69 69 69 71 71 71 71 71 71 72
15 15 12 9 11 12 15 15 15 16 15 16 18 18 16 16 17 16 17 17 17 17 17 34 46 51 53 55 56 57 62 65 67 67 67 67 68 68 68 68 68 68 68 69 69 70 70 70 71 71 71 70 70 70 70 71 71 71 70 71 71 71 71 71 70 70 71 70 72 71 71 70 69 69 68 70 70 70 70 70 70 69 69 70 70 69 69 69 68 70 70 71 71 71 71 69 71
7 13 12 7 11 12 13 15 16 16 15 16 16 18 18 18 19 19 19 19 19 18 24 37 40 54 56 57 56 59 62 65 66 66 67 66 67 67 67 67 67 67 67 68 69 69 70 70 70 70 70 70 70 70 70 70 69 70 70 70 70 70 70 71 70 71 70 70 71 71 71 70 69 69 69 70 70 70 70 70 69 69 69 70 70 70 69 69 69 69 68 70 71 70 67 67 68
6 7 4 5 7 6 6 11 12 14 15 14 14 14 15 17 18 22 18 18 19 18 30 55 52 58 56 56 60 61 62 65 66 66 66 66 66 67 67 67 67 67 67 67 68 69 69 70 70 70 70 70 69 69 69 69 69 69 69 69 69 69 69 70 70 70 69 69 70 70 70 69 69 68 71 71 71 69 69 69 69 68 68 69 70 70 69 69 69 69 69 69 70 69 66 66 67
5 5 3 4 3 1 2 3 3 5 5 6 9 12 11 13 15 18 18 18 18 18 21 52 52 57 57 56 58 62 63 64 65 66 66 66 66 67 67 67 67 67 67 67 68 68 69 69 69 70 70 69 69 69 69 69 69 69 69 69 68 69 69 70 70 69 69 69 69 69 69 69 69 69 70 70 69 69 68 67 67 67 65 66 70 65 65 67 67 65 66 67 63 65 64 64 66
8 2 3 3 3 1 2 2 3 2 3 2 2 2 4 12 12 17 19 17 18 21 30 49 54 55 57 58 57 60 63 63 63 64 65 65 65 65 66 66 67 67 67 67 67 68 68 69 69 70 69 69 69 68 68 69 69 68 68 68 68 68 69 69 69 69 69 68 69 69 69 68 68 68 69 69 69 69 68 67 66 66 64 65 68 65 64 63 64 64 64 64 64 62 62 64 67
2 -0 1 4 3 2 3 2 2 2 1 1 1 1 5 5 3 3 11 18 18 20 18 54 56 56 57 57 58 60 62 62 63 63 64 64 64 65 66 66 66 66 67 66 67 68 68 68 69 69 69 69 68 68 68 69 68 68 68 68 67 67 68 68 69 69 68 68 68 68 68 67 67 68 68 68 69 68 68 67 66 66 65 65 66 65 64 63 63 63 62 62 62 61 60 64 67
4 -2 -1 -0 3 3 4 3 3 2 1 1 1 4 7 7 3 5 5 4 6 15 21 49 57 61 60 59 60 61 62 62 63 63 63 64 64 64 66 66 66 66 66 66 67 67 68 68 69 69 69 68 68 68 68 68 68 68 68 68 67 67 67 68 68 68 68 68 68 68 68 67 67 67 67 68 68 68 68 67 66 66 66 65 65 65 64 64 63 62 62 61 60 60 59 64 66
9 5 1 -1 1 1 2 2 2 3 3 3 10 7 7 9 8 9 9 10 9 9 17 38 52 60 59 58 59 61 61 62 62 63 63 64 64 63 64 66 65 65 65 65 66 67 68 68 68 69 69 68 68 68 67 67 67 67 67 67 67 68 67 67 67 67 67 67 67 67 67 66 66 66 66 68 68 68 68 67 66 66 66 65 65 64 64 64 63 62 61 61 59 59 59 64 67
10 8 7 4 4 5 4 3 3 5 5 6 6 5 7 8 11 8 10 16 16 18 18 22 45 59 59 59 59 59 60 61 62 62 62 63 64 63 63 64 65 65 64 65 66 67 68 68 68 68 68 68 68 67 67 67 67 67 67 67 66 67 66 66 66 66 66 66 66 67 67 66 66 65 66 67 68 67 67 67 66 66 65 65 65 63 64 63 64 63 61 60 58 58 59 65 66
13 13 10 9 7 5 7 6 4 4 5 6 5 2 3 5 9 6 9 16 17 15 19 30 59 60 59 58 61 62 61 61 62 62 63 63 63 63 62 63 64 64 65 65 66 67 68 67 67 68 68 68 67 67 66 67 67 66 66 66 66 66 66 66 66 65 65 65 65 66 66 66 66 65 65 66 67 67 67 67 66 66 65 64 65 63 62 64 63 63 62 59 58 58 61 65 65
14 11 8 8 8 8 7 7 6 5 4 6 5 2 2 3 6 4 9 14 18 16 29 45 58 59 57 59 61 61 62 62 62 61 62 62 62 62 61 61 63 64 64 65 66 67 67 67 67 68 68 68 67 66 66 66 67 66 66 66 66 66 66 66 65 65 65 64 64 65 65 65 66 65 65 65 66 66 66 66 66 65 65 64 65 63 61 62 63 63 62 59 59 61 63 64 64
12 9 6 6 6 5 7 6 6 8 3 4 5 -2 -3 -0 3 10 14 15 23 25 31 40 42 56 56 58 59 60 60 60 61 62 62 62 62 61 61 62 63 64 64 65 66 67 67 67 67 68 68 68 67 66 66 66 67 66 66 66 66 66 65 66 65 65 65 64 64 64 65 64 66 65 65 64 66 65 65 66 65 65 64 63 64 63 60 60 61 62 61 59 60 62 63 63 64
11 8 7 2 4 3 4 8 7 6 4 3 1 -4 -3 -2 -0 6 13 18 14 23 24 32 38 49 53 53 54 58 60 61 61 61 61 62 62 62 62 61 62 64 64 65 66 66 67 67 67 68 68 68 67 66 66 66 67 66 66 66 67 66 65 66 66 65 66 65 64 64 65 64 65 64 64 64 64 64 64 64 64 64 64 63 64 63 60 59 60 61 60 62 63 62 62 63 63
10 8 1 5 2 4 4 9 4 3 5 4 2 1 -2 -2 -2 -2 10 15 26 15 28 30 38 44 53 54 55 56 60 61 62 61 61 63 63 62 63 63 64 65 65 65 65 66 67 67 67 67 68 68 67 67 66 66 67 66 66 66 66 66 65 66 67 66 66 65 65 64 64 64 65 64 64 63 63 63 64 63 63 63 63 63 63 63 60 58 60 60 61 61 61 62 62 63 62
7 6 5 1 2 1 -0 3 10 2 2 4 0 5 -1 -1 -1 -1 5 22 25 14 10 12 32 35 49 54 56 55 58 60 61 61 61 62 64 65 64 63 65 65 65 65 65 66 66 66 67 67 68 68 67 67 66 66 66 66 66 67 66 67 66 66 67 67 67 66 66 65 64 64 65 64 64 63 63 63 64 63 63 63 63 63 63 62 61 59 60 61 62 61 61 62 62 62 62
12 7 8 7 3 -1 -2 -1 3 4 3 2 1 -2 -2 -3 -3 -4 14 27 26 17 16 13 25 35 42 54 56 56 58 58 58 58 59 61 62 61 65 66 67 66 66 66 65 66 66 66 67 67 67 68 68 67 66 66 66 66 66 66 66 67 66 66 67 68 67 67 67 65 64 65 65 63 63 64 63 63 63 63 62 63 64 63 63 62 62 60 61 62 62 61 61 61 61 61 61
13 13 9 7 4 3 -0 -1 -0 4 2 -2 -3 -0 -1 -1 -6 -3 15 21 20 20 18 16 13 29 35 49 56 56 57 58 57 58 59 61 62 61 63 66 67 67 67 66 66 66 65 66 66 67 67 68 68 67 66 65 66 66 66 66 67 67 66 67 67 68 68 67 68 65 64 65 66 65 63 64 63 64 64 63 63 64 64 63 63 63 62 62 62 62 61 61 61 61 60 60 59
14 15 12 9 7 3 -0 -1 -2 -1 3 -3 -4 -6 -5 -5 -7 -8 -4 13 18 12 14 14 13 15 32 34 53 56 56 55 56 57 59 60 62 62 62 64 64 65 67 67 66 66 66 65 66 67 66 67 68 68 67 66 66 66 66 66 66 67 66 67 68 68 68 67 67 66 64 65 66 65 64 65 64 64 63 62 62 64 64 63 63 62 62 63 62 62 61 62 62 61 60 60 59
4 3 3 4 3 1 1 1 2 2 -2 -3 -6 -5 -7 -7 -7 -7 1 14 11 12 15 17 16 16 31 36 31 55 55 55 56 58 60 61 62 63 63 64 64 64 64 65 67 66 66 65 66 66 66 67 68 68 68 66 66 66 66 66 66 66 66 67 67 68 68 67 67 66 65 65 65 65 64 65 64 64 63 62 62 64 64 63 62 62 63 62 62 61 62 62 61 61 60 59 58
8 6 5 2 2 3 4 4 4 4 -1 -1 -2 -1 -3 -4 -5 -3 -2 1 13 12 12 19 20 21 26 26 29 45 55 55 56 57 59 61 62 63 64 63 64 65 65 65 66 66 66 65 65 66 66 66 67 67 67 66 65 66 66 66 65 66 66 67 67 68 67 67 67 66 65 65 64 65 64 65 64 64 62 62 62 64 64 63 62 62 63 62 63 63 64 63 61 59 58 57 57
8 7 5 5 5 5 4 3 2 3 3 -1 -1 -1 2 0 3 2 2 4 5 9 16 19 17 15 23 26 24 25 44 55 58 58 60 61 62 61 61 62 63 63 66 66 66 66 66 65 65 65 66 66 66 67 67 66 66 66 66 66 66 66 66 66 66 67 67 67 67 66 65 65 64 65 65 64 65 63 62 61 62 63 64 63 62 62 63 65 64 64 63 61 60 59 58 57 57
10 10 10 8 9 6 7 7 5 4 0 -1 -0 -0 -0 3 5 4 6 4 7 9 9 7 8 11 18 24 23 27 30 35 46 57 59 59 60 59 60 62 61 63 66 67 67 66 66 66 66 66 66 65 66 67 67 66 67 66 66 66 66 66 66 67 66 67 67 67 67 66 66 65 64 65 64 64 64 64 62 62 62 63 65 64 62 63 64 64 64 64 62 61 59 58 58 58 57
12 11 11 10 10 8 8 7 5 6 5 3 4 0 1 2 7 7 6 5 9 6 5 5 12 16 16 19 23 29 29 29 28 34 55 59 58 58 59 61 63 66 67 66 66 66 66 66 66 66 66 66 66 66 67 67 67 66 66 66 66 66 66 67 66 67 67 67 66 66 66 65 64 65 64 63 63 65 62 62 62 63 65 64 63 64 64 64 64 63 62 61 60 57 57 57 58
19 13 11 10 9 8 7 8 8 7 4 4 0 2 2 3 3 4 10 16 25 25 23 22 20 22 24 32 32 32 26 30 31 34 43 61 60 60 62 64 64 65 67 66 66 66 66 65 66 66 66 66 66 66 66 66 67 66 66 66 66 66 66 66 65 66 66 67 66 66 65 65 64 64 64 63 63 65 64 63 62 63 64 64 65 64 64 64 64 64 63 61 59 58 57 56 58
17 21 13 11 10 10 10 9 7 8 11 7 5 2 2 7 8 5 7 16 14 16 16 14 14 14 19 19 19 24 36 33 29 33 46 57 63 62 64 65 64 65 66 67 66 67 66 66 66 66 66 66 66 66 66 66 66 65 65 65 64 64 64 65 64 64 65 66 66 66 65 65 64 64 64 63 63 65 65 63 63 63 64 65 65 65 65 64 64 64 63 61 60 59 57 57 57
21 16 16 12 11 10 10 9 7 6 4 7 5 2 4 11 7 7 11 12 10 13 14 12 13 15 16 21 23 27 28 29 32 34 42 59 64 63 64 65 64 64 66 67 67 66 66 66 66 67 66 66 66 66 66 66 65 65 65 65 65 64 64 64 65 65 65 66 66 65 65 65 64 64 64 63 64 66 65 64 63 63 64 65 65 65 65 64 64 64 64 63 61 59 58 57 57
23 20 19 21 19 11 10 8 8 9 12 9 4 5 3 4 6 9 9 7 7 7 8 9 13 16 16 17 20 19 23 26 26 28 44 53 63 64 64 65 65 65 66 67 67 67 66 66 66 66 66 66 66 66 66 65 65 65 65 64 65 64 64 64 64 64 65 66 65 65 65 64 64 64 64 63 64 66 66 64 63 64 65 65 65 65 65 65 65 64 64 63 62 60 58 57 57
26 27 27 27 25 22 18 12 11 11 11 9 8 8 7 7 6 17 13 6 6 6 8 10 10 11 15 17 19 17 20 19 20 25 44 53 59 65 64 64 64 64 65 65 66 67 67 66 67 67 66 66 67 66 66 65 65 65 65 64 64 64 64 64 64 64 65 65 65 65 65 63 64 64 64 63 64 67 66 65 64 64 65 65 65 65 65 65 64 64 64 63 62 61 59 58 58
35 31 29 27 24 19 17 16 14 14 11 12 8 6 6 6 9 9 12 8 7 7 8 9 9 9 9 14 14 15 17 21 21 21 32 54 58 63 65 63 62 63 64 64 64 65 66 67 67 67 66 66 67 66 66 65 65 65 64 64 64 64 64 64 64 64 64 65 64 64 64 63 63 64 64 63 64 67 67 66 65 65 65 65 65 64 64 64 65 65 64 63 63 62 60 60 58
27 26 25 23 22 22 21 19 15 14 12 12 5 4 6 5 7 9 12 11 8 8 9 10 13 14 14 20 17 17 18 21 19 22 30 50 60 63 65 63 62 62 62 64 64 65 66 67 67 66 66 67 67 66 66 65 65 65 64 64 64 64 63 63 63 63 64 64 64 64 64 63 63 63 64 64 63 66 67 66 65 66 66 65 65 64 64 64 65 65 65 64 63 62 62 60 59
26 28 26 23 23 23 20 19 19 13 13 13 6 5 6 7 8 11 12 17 11 10 8 9 9 8 10 13 14 15 17 20 21 21 30 44 60 63 61 60 63 64 64 64 65 65 66 67 67 66 67 67 67 66 66 66 65 65 64 64 64 64 63 63 63 63 63 64 64 63 64 63 62 63 63 64 64 66 67 67 66 66 66 66 65 64 64 64 64 65 65 64 64 63 62 61 60
35 30 28 21 19 18 15 16 12 14 13 13 19 20 10 5 8 14 15 11 9 8 6 7 8 7 9 13 14 15 21 22 22 22 30 41 54 60 61 59 60 62 65 65 66 66 66 66 66 66 66 67 66 66 66 66 65 65 64 64 64 64 64 63 63 63 63 64 64 63 63 63 62 63 63 63 64 65 66 66 66 66 66 66 66 65 65 64 64 64 64 64 64 63 63 62 61
27 26 25 21 17 16 14 15 15 16 17 20 23 22 18 18 17 18 18 17 14 11 11 12 13 12 13 13 15 19 24 23 24 26 29 41 51 57 59 60 61 60 64 65 65 66 66 66 66 66 66 67 66 66 66 65 65 65 65 64 64 64 64 63 63 63 63 64 65 64 63 63 62 62 63 63 64 66 66 66 67 67 66 66 66 66 65 65 64 64 64 64 64 64 64 62 61
27 28 25 25 22 16 13 16 13 13 16 21 25 19 19 15 18 23 24 23 22 21 18 16 18 18 18 18 18 20 22 22 26 28 28 35 53 56 58 59 59 60 60 63 65 66 66 66 66 66 66 66 66 66 66 65 65 65 65 65 64 64 64 63 63 63 63 64 65 64 64 63 63 63 63 63 64 66 66 66 67 67 67 67 66 66 66 65 64 64 64 64 64 64 64 63 62
26 27 27 25 23 27 19 24 23 22 23 21 21 20 23 21 25 26 24 22 21 22 21 24 20 19 19 21 22 22 23 27 30 29 28 28 44 59 58 58 59 60 60 60 61 66 66 66 66 66 66 66 66 66 66 66 65 65 65 65 64 64 64 64 63 63 63 64 64 65 64 63 63 63 63 64 65 66 67 67 67 67 67 67 66 66 66 65 64 64 63 63 63 64 64 63 63
27 25 23 27 32 31 28 26 29 28 26 21 24 23 24 27 23 23 23 21 22 22 21 19 19 19 19 20 22 24 29 30 32 34 33 31 34 56 60 60 59 60 59 59 58 59 60 66 66 66 66 66 66 66 66 66 65 65 65 65 65 64 64 64 63 63 63 64 64 65 65 64 64 63 64 64 65 66 67 67 67 67 67 67 66 66 66 66 65 64 63 63 63 64 64 63 63
27 24 28 38 37 38 29 22 26 23 19 19 24 21 20 20 18 28 23 21 21 22 22 21 21 23 24 26 31 31 33 35 35 36 37 35 36 49 60 61 61 60 60 60 59 60 59 59 60 65 66 66 66 66 66 66 65 65 65 65 65 65 64 64 64 63 64 64 64 65 65 65 64 64 64 64 65 66 66 67 67 67 67 66 66 66 66 66 65 65 64 63 64 64 63 63 63
31 31 37 27 23 25 30 27 19 19 19 18 19 21 21 20 19 20 19 20 22 23 23 22 21 25 27 33 35 37 37 38 36 36 37 38 37 37 51 60 61 62 60 61 61 60 60 60 60 61 62 66 66 66 66 66 66 66 65 65 65 65 64 64 64 64 64 64 64 64 65 65 65 65 64 64 65 65 66 67 67 66 66 66 66 66 66 66 66 65 65 64 64 64 63 63 63
35 33 34 34 33 28 26 26 28 24 19 18 18 19 19 21 21 26 22 22 22 23 25 24 23 26 29 35 37 37 38 38 38 36 38 39 39 38 37 50 58 60 61 61 62 61 60 61 62 62 62 65 65 66 66 66 66 66 66 65 65 65 65 64 64 64 64 64 64 64 65 65 65 65 65 65 65 65 66 66 67 66 66 66 66 66 66 66 66 65 65 64 64 64 63 63 63
33 34 34 36 34 37 35 32 28 25 21 20 19 17 20 24 26 24 22 22 22 25 27 26 26 28 31 36 38 38 38 38 38 38 37 39 39 39 38 44 56 57 58 60 61 60 60 61 62 62 62 63 65 65 66 66 66 66 66 65 65 65 65 64 64 64 64 64 64 64 65 65 65 65 65 65 65 65 65 66 66 66 66 66 66 66 66 66 66 65 65 65 64 64 63 63 62
36 35 32 34 31 28 25 23 32 29 25 22 21 18 21 25 26 25 23 24 27 28 27 26 26 29 32 37 38 38 38 38 39 39 37 39 40 40 39 43 54 57 57 59 60 60 60 61 61 61 63 63 63 64 65 67 66 66 66 65 65 65 65 65 64 64 64 64 64 64 65 65 65 66 66 65 65 65 65 66 66 66 66 66 66 66 66 66 65 65 64 64 64 64 64 63 62